| time (UTC) | temp C | wind direction | speed KPH | gust KPH | rain 1hr cm | rain 24hr cm | rain mn cm | humidity % | barometer mb |
| 20260507054701 | 16 | 16 | 0.0 | 0.0 | 0.00 | 1.60 | 0.03 | 7 | 989.6 |
| 20260507054649 | 16 | 16 | 0.0 | 0.0 | 0.00 | 1.60 | 0.03 | 7 | 989.6 |
| 20260507053148 | 11 | 17 | 0.0 | 0.0 | 0.00 | 1.60 | 0.03 | 8 | 989.3 |
| 20260507051701 | 11 | 53 | 0.0 | 1.6 | 0.00 | 1.60 | 0.03 | 9 | 989.2 |
| 20260507051648 | 11 | 61 | 0.0 | 0.0 | 0.00 | 1.60 | 0.03 | 9 | 989.2 |
| 20260507050148 | 11 | 22 | 0.0 | 0.0 | 0.00 | 1.60 | 0.03 | 9 | 989.4 |
| 20260507044701 | 9 | 5 | 1.6 | 1.6 | 0.00 | 1.60 | 0.03 | 9 | 989.3 |
| 20260507044648 | 9 | 348 | 1.6 | 1.6 | 0.00 | 1.60 | 0.03 | 9 | 989.3 |
| 20260507043149 | 8 | 18 | 0.0 | 0.0 | 0.00 | 1.60 | 0.03 | 9 | 989.2 |
| 20260507041648 | 8 | 24 | 0.0 | 0.0 | 0.00 | 1.60 | 0.03 | 9 | 988.6 |
| 20260507040148 | 8 | 15 | 0.0 | 0.0 | 0.00 | 1.60 | 0.03 | 9 | 988.7 |
| 20260507034648 | 8 | 260 | 4.8 | 6.4 | 0.03 | 1.63 | 0.03 | 9 | 988.6 |
| 20260507033149 | 8 | 328 | 1.6 | 3.2 | 0.03 | 1.63 | 0.03 | 9 | 988.6 |
| 20260507031649 | 9 | 233 | 3.2 | 4.8 | 0.03 | 1.63 | 0.03 | 9 | 988.5 |
| 20260507030203 | 10 | 310 | 1.6 | 3.2 | 0.03 | 1.63 | 0.03 | 9 | 988.9 |
| 20260507030148 | 10 | 314 | 1.6 | 3.2 | 0.03 | 1.63 | 0.03 | 9 | 988.9 |
| 20260507024701 | 10 | 11 | 0.0 | 1.6 | 0.00 | 1.60 | 0.00 | 9 | 988.7 |
| 20260507024648 | 10 | 4 | 0.0 | 3.2 | 0.00 | 1.60 | 0.00 | 9 | 988.7 |
| 20260507023148 | 10 | 6 | 0.0 | 0.0 | 0.00 | 1.60 | 0.00 | 9 | 988.7 |
| 20260507021702 | 10 | 14 | 0.0 | 0.0 | 0.00 | 1.60 | 0.00 | 9 | 988.7 |
| 20260507021649 | 10 | 14 | 0.0 | 1.6 | 0.00 | 1.60 | 0.00 | 9 | 988.7 |
| 20260507020202 | 10 | 358 | 0.0 | 1.6 | 0.00 | 1.60 | 0.00 | 9 | 988.6 |
| 20260507020149 | 10 | 316 | 0.0 | 1.6 | 0.00 | 1.60 | 0.00 | 9 | 988.6 |
| 20260507014702 | 10 | 28 | 0.0 | 1.6 | 0.00 | 1.60 | 0.00 | 9 | 988.5 |
| 20260507014648 | 10 | 33 | 0.0 | 1.6 | 0.00 | 1.60 | 0.00 | 9 | 988.5 |
| 20260507013148 | 10 | 26 | 0.0 | 0.0 | 0.00 | 1.60 | 0.00 | 9 | 988.3 |
| 20260507011701 | 11 | 8 | 1.6 | 1.6 | 0.00 | 1.60 | 0.00 | 9 | 988.3 |
| 20260507011648 | 11 | 355 | 1.6 | 1.6 | 0.00 | 1.60 | 0.00 | 9 | 988.3 |
| 20260507010202 | 11 | 203 | 1.6 | 4.8 | 0.00 | 1.60 | 0.00 | 9 | 988.5 |
| 20260507010149 | 11 | 77 | 1.6 | 4.8 | 0.00 | 1.60 | 0.00 | 9 | 988.5 |
| 20260507004702 | 11 | 187 | 3.2 | 3.2 | 0.00 | 1.60 | 0.00 | 9 | 988.7 |
| 20260507004649 | 11 | 300 | 1.6 | 3.2 | 0.00 | 1.60 | 0.00 | 9 | 988.7 |
| 20260507003148 | 11 | 29 | 0.0 | 0.0 | 0.00 | 1.60 | 0.00 | 9 | 988.8 |
| 20260507001648 | 11 | 330 | 1.6 | 1.6 | 0.00 | 1.60 | 0.00 | 9 | 988.7 |
| 20260507000148 | 11 | 252 | 1.6 | 4.8 | 0.00 | 1.60 | 0.00 | 9 | 989.0 |
| 20260506234649 | 11 | 116 | 1.6 | 4.8 | 0.00 | 1.60 | 0.00 | 9 | 989.0 |
| 20260506233148 | 11 | 14 | 0.0 | 0.0 | 0.00 | 1.60 | 0.00 | 9 | 989.2 |
| 20260506231648 | 11 | 227 | 3.2 | 4.8 | 0.00 | 1.60 | 0.00 | 9 | 989.3 |
| 20260506230148 | 11 | 14 | 0.0 | 0.0 | 0.00 | 1.60 | 0.00 | 9 | 989.3 |
| 20260506224701 | 11 | 355 | 1.6 | 3.2 | 0.00 | 1.60 | 0.00 | 9 | 989.2 |
| 20260506224648 | 11 | 300 | 3.2 | 3.2 | 0.00 | 1.60 | 0.00 | 9 | 989.2 |
| 20260506223202 | 11 | 347 | 0.0 | 1.6 | 0.00 | 1.60 | 0.00 | 9 | 988.9 |
| 20260506223149 | 11 | 326 | 0.0 | 1.6 | 0.00 | 1.60 | 0.00 | 9 | 988.9 |
| 20260506221701 | 11 | 341 | 1.6 | 1.6 | 0.00 | 1.60 | 0.00 | 9 | 989.0 |
| 20260506221648 | 11 | 343 | 1.6 | 1.6 | 0.00 | 1.60 | 0.00 | 9 | 989.0 |
| 20260506220201 | 11 | 348 | 1.6 | 3.2 | 0.00 | 1.60 | 0.00 | 9 | 989.3 |
| 20260506220148 | 11 | 333 | 1.6 | 3.2 | 0.00 | 1.60 | 0.00 | 9 | 989.3 |
| 20260506214649 | 11 | 32 | 0.0 | 0.0 | 0.00 | 1.65 | 1.65 | 9 | 989.0 |
| 20260506213201 | 11 | 327 | 0.0 | 8.0 | 0.00 | 1.65 | 1.65 | 9 | 989.2 |
| 20260506213148 | 11 | 10 | 0.0 | 8.0 | 0.00 | 1.65 | 1.65 | 9 | 989.2 |
| 20260506211702 | 11 | 292 | 1.6 | 8.0 | 0.00 | 1.65 | 1.65 | 9 | 989.0 |
| 20260506211649 | 11 | 264 | 6.4 | 8.0 | 0.00 | 1.65 | 1.65 | 9 | 989.0 |
| 20260506210202 | 12 | 211 | 4.8 | 6.4 | 0.05 | 1.70 | 1.65 | 9 | 988.9 |
| 20260506210148 | 12 | 227 | 3.2 | 4.8 | 0.05 | 1.70 | 1.65 | 9 | 988.9 |
| 20260506204648 | 12 | 32 | 0.0 | 1.6 | 0.05 | 1.65 | 1.65 | 9 | 988.6 |
| 20260506203148 | 12 | 6 | 0.0 | 1.6 | 0.05 | 1.65 | 1.65 | 9 | 988.7 |
| 20260506201648 | 12 | 32 | 0.0 | 0.0 | 0.10 | 1.70 | 1.63 | 9 | 988.6 |
| 20260506200149 | 12 | 317 | 1.6 | 1.6 | 0.28 | 1.88 | 1.60 | 9 | 988.4 |
| 20260506194648 | 12 | 48 | 0.0 | 1.6 | 0.33 | 1.60 | 1.60 | 9 | 988.2 |
| 20260506193148 | 13 | 4 | 0.0 | 3.2 | 0.38 | 1.63 | 1.55 | 9 | 988.2 |
| 20260506191648 | 13 | 290 | 1.6 | 3.2 | 0.56 | 1.83 | 1.45 | 9 | 987.9 |
| 20260506190202 | 13 | 302 | 1.6 | 3.2 | 0.46 | 1.73 | 1.27 | 9 | 987.6 |
| 20260506190149 | 13 | 315 | 1.6 | 3.2 | 0.46 | 1.73 | 1.27 | 9 | 987.6 |
| 20260506184649 | 13 | 18 | 0.0 | 1.6 | 0.89 | 1.57 | 1.22 | 9 | 987.4 |
| 20260506183202 | 13 | 274 | 4.8 | 8.0 | 0.74 | 1.45 | 1.07 | 9 | 987.2 |
| 20260506183148 | 13 | 251 | 6.4 | 8.0 | 0.74 | 1.45 | 1.07 | 9 | 987.2 |
| 20260506181701 | 13 | 237 | 4.8 | 6.4 | 0.51 | 1.22 | 0.84 | 9 | 987.6 |
| 20260506181648 | 13 | 311 | 4.8 | 6.4 | 0.51 | 1.22 | 0.84 | 9 | 987.6 |
| 20260506180201 | 13 | 243 | 3.2 | 4.8 | 0.41 | 1.12 | 0.74 | 9 | 987.2 |
| 20260506180148 | 13 | 253 | 3.2 | 4.8 | 0.41 | 1.12 | 0.74 | 9 | 987.2 |
| 20260506174702 | 14 | 126 | 3.2 | 4.8 | 0.00 | 0.33 | 0.33 | 8 | 986.7 |
| 20260506174649 | 13 | 188 | 3.2 | 4.8 | 0.00 | 0.33 | 0.33 | 8 | 986.7 |
| 20260506173201 | 14 | 286 | 3.2 | 4.8 | 0.00 | 0.33 | 0.33 | 8 | 986.7 |
| 20260506173149 | 14 | 240 | 1.6 | 4.8 | 0.00 | 0.33 | 0.33 | 8 | 986.7 |
| 20260506171701 | 14 | 241 | 1.6 | 4.8 | 0.00 | 0.30 | 0.30 | 8 | 986.6 |
| 20260506171648 | 14 | 341 | 3.2 | 4.8 | 0.00 | 0.30 | 0.30 | 8 | 986.6 |
| 20260506170201 | 15 | 2 | 3.2 | 12.9 | 0.00 | 0.30 | 0.30 | 8 | 986.3 |
| 20260506170148 | 15 | 302 | 4.8 | 12.9 | 0.00 | 0.30 | 0.30 | 8 | 986.3 |
| 20260506164701 | 15 | 340 | 4.8 | 6.4 | 0.03 | 0.33 | 0.30 | 8 | 986.3 |
| 20260506164648 | 15 | 291 | 0.0 | 6.4 | 0.03 | 0.33 | 0.30 | 8 | 986.3 |
| 20260506163149 | 16 | 349 | 1.6 | 12.9 | 0.05 | 0.36 | 0.30 | 8 | 986.0 |
| 20260506161648 | 16 | 19 | 1.6 | 6.4 | 0.05 | 0.36 | 0.30 | 8 | 986.2 |
| 20260506160148 | 16 | 298 | 0.0 | 1.6 | 0.05 | 0.36 | 0.30 | 8 | 986.0 |
| 20260506154648 | 18 | 236 | 12.9 | 27.4 | 0.00 | 0.25 | 0.23 | 7 | 985.8 |
| 20260506153149 | 19 | 293 | 4.8 | 8.0 | 0.00 | 0.25 | 0.23 | 7 | 985.6 |
| 20260506151649 | 18 | 258 | 9.7 | 17.7 | 0.00 | 0.25 | 0.23 | 7 | 985.8 |
| 20260506150201 | 18 | 238 | 8.0 | 8.0 | 0.00 | 0.25 | 0.23 | 7 | 985.9 |
| 20260506150148 | 18 | 262 | 8.0 | 16.1 | 0.00 | 0.25 | 0.23 | 7 | 985.9 |
| 20260506144701 | 19 | 251 | 3.2 | 6.4 | 0.00 | 0.46 | 0.23 | 7 | 985.9 |
| 20260506144648 | 19 | 312 | 3.2 | 8.0 | 0.00 | 0.46 | 0.23 | 7 | 985.9 |
| 20260506143201 | 17 | 356 | 0.0 | 4.8 | 0.13 | 0.58 | 0.23 | 8 | 985.9 |
| 20260506143148 | 17 | 351 | 0.0 | 4.8 | 0.13 | 0.58 | 0.23 | 8 | 985.9 |
| 20260506141702 | 16 | 243 | 6.4 | 8.0 | 0.13 | 0.58 | 0.23 | 8 | 985.9 |
| 20260506141649 | 16 | 5 | 1.6 | 4.8 | 0.13 | 0.58 | 0.23 | 8 | 985.9 |
| 20260506140202 | 16 | 265 | 8.0 | 8.0 | 0.13 | 0.58 | 0.23 | 8 | 985.9 |
| 20260506140149 | 16 | 213 | 6.4 | 8.0 | 0.13 | 0.58 | 0.23 | 8 | 985.9 |
| 20260506134701 | 16 | 260 | 4.8 | 17.7 | 0.13 | 0.64 | 0.23 | 8 | 986.0 |
| 20260506134648 | 16 | 242 | 8.0 | 17.7 | 0.13 | 0.64 | 0.23 | 8 | 986.0 |
| 20260506133201 | 18 | 4 | 12.9 | 22.5 | 0.00 | 0.51 | 0.08 | 7 | 986.1 |
| 20260506133148 | 18 | 233 | 14.5 | 22.5 | 0.00 | 0.51 | 0.08 | 7 | 986.1 |
| 20260506131648 | 19 | 193 | 9.7 | 14.5 | 0.00 | 0.51 | 0.08 | 7 | 986.0 |
| 20260506130201 | 21 | 258 | 19.3 | 22.5 | 0.00 | 0.51 | 0.08 | 6 | 986.2 |
| 20260506130148 | 21 | 208 | 11.3 | 22.5 | 0.00 | 0.51 | 0.08 | 6 | 986.2 |
| 20260506124649 | 20 | 332 | 8.0 | 29.0 | 0.00 | 0.66 | 0.08 | 7 | 986.3 |
| 20260506123148 | 20 | 215 | 12.9 | 19.3 | 0.00 | 0.66 | 0.08 | 7 | 986.5 |
| 20260506121648 | 17 | 252 | 9.7 | 16.1 | 0.00 | 0.66 | 0.08 | 8 | 986.5 |
| 20260506120148 | 18 | 263 | 11.3 | 24.1 | 0.00 | 0.66 | 0.08 | 8 | 986.5 |
| 20260506114649 | 20 | 258 | 19.3 | 30.6 | 0.00 | 1.22 | 0.08 | 6 | 986.3 |
| 20260506113148 | 20 | 206 | 8.0 | 29.0 | 0.00 | 1.22 | 0.08 | 6 | 986.3 |
| 20260506111648 | 19 | 19 | 6.4 | 22.5 | 0.00 | 1.22 | 0.08 | 7 | 986.4 |
| 20260506110201 | 18 | 243 | 19.3 | 30.6 | 0.00 | 1.22 | 0.08 | 7 | 987.0 |
| 20260506110148 | 18 | 268 | 24.1 | 30.6 | 0.00 | 1.22 | 0.08 | 7 | 987.0 |
| 20260506104701 | 18 | 242 | 14.5 | 17.7 | 0.00 | 1.45 | 0.08 | 7 | 987.2 |
| 20260506104648 | 18 | 264 | 12.9 | 17.7 | 0.00 | 1.45 | 0.08 | 7 | 987.2 |
| 20260506103202 | 19 | 234 | 19.3 | 29.0 | 0.00 | 1.45 | 0.08 | 7 | 987.0 |
| 20260506103149 | 19 | 235 | 12.9 | 27.4 | 0.00 | 1.45 | 0.08 | 7 | 987.0 |
| 20260506101701 | 20 | 195 | 4.8 | 16.1 | 0.00 | 1.45 | 0.08 | 6 | 987.2 |
| 20260506101649 | 20 | 31 | 3.2 | 16.1 | 0.00 | 1.45 | 0.08 | 7 | 987.2 |
| 20260506100202 | 19 | 264 | 9.7 | 22.5 | 0.00 | 1.45 | 0.08 | 7 | 986.8 |
| 20260506100148 | 19 | 268 | 1.6 | 22.5 | 0.00 | 1.45 | 0.08 | 7 | 986.8 |
| 20260506094701 | 18 | 204 | 19.3 | 29.0 | 0.00 | 1.83 | 0.08 | 7 | 986.8 |
| 20260506094648 | 19 | 199 | 16.1 | 29.0 | 0.00 | 1.83 | 0.08 | 7 | 986.8 |
| 20260506093201 | 18 | 260 | 4.8 | 20.9 | 0.00 | 1.83 | 0.08 | 7 | 987.0 |
| 20260506093148 | 17 | 281 | 4.8 | 20.9 | 0.00 | 1.83 | 0.08 | 7 | 987.0 |
| 20260506091701 | 17 | 285 | 14.5 | 17.7 | 0.00 | 1.83 | 0.08 | 7 | 987.2 |
| 20260506091649 | 17 | 215 | 11.3 | 16.1 | 0.00 | 1.83 | 0.08 | 7 | 987.2 |
| 20260506090148 | 17 | 249 | 16.1 | 20.9 | 0.00 | 1.83 | 0.08 | 7 | 987.0 |
| 20260506084701 | 17 | 210 | 9.7 | 27.4 | 0.00 | 1.83 | 0.08 | 7 | 987.0 |
| 20260506084648 | 17 | 278 | 14.5 | 27.4 | 0.00 | 1.83 | 0.08 | 7 | 987.0 |
| 20260506083148 | 17 | 266 | 9.7 | 16.1 | 0.00 | 1.83 | 0.08 | 8 | 987.0 |
| 20260506081648 | 16 | 15 | 1.6 | 4.8 | 0.00 | 1.83 | 0.08 | 8 | 987.0 |
| 20260506080149 | 15 | 215 | 12.9 | 19.3 | 0.00 | 1.83 | 0.08 | 8 | 986.6 |
| 20260506073148 | 15 | 211 | 6.4 | 6.4 | 0.00 | 1.83 | 0.08 | 8 | 986.5 |
| 20260506071648 | 15 | 15 | 3.2 | 4.8 | 0.00 | 1.83 | 0.08 | 8 | 986.4 |
| 20260506070148 | 16 | 235 | 9.7 | 12.9 | 0.00 | 1.83 | 0.08 | 8 | 986.4 |
| 20260506061701 | 14 | 158 | 1.6 | 6.4 | 0.00 | 1.85 | 0.08 | 8 | 986.1 |
| 20260506061648 | 14 | 346 | 1.6 | 6.4 | 0.00 | 1.85 | 0.08 | 8 | 986.1 |
| 20260506060201 | 14 | 5 | 0.0 | 4.8 | 0.00 | 1.83 | 0.08 | 8 | 986.3 |
| 20260506060148 | 14 | 13 | 0.0 | 4.8 | 0.00 | 1.83 | 0.08 | 8 | 986.3 |